Regional Weather Roundup
Issued by NWS Newport/Morehead, NC

Current Version | Previous Version | Graphics & Text | Print | Product List | Glossary Off
Versions: 1 2 3 4 5 6 7 8 9 10 11 12 13 14 15 16 17 18 19 20 21 22 23 24 25 26 27 28 29 30 31 32 33 34 35 36 37 38 39 40 41 42 43 44 45 46 47 48 49 50

000
ASUS42 KMHX 060524
RWRMHX
WEATHER ROUNDUP FOR EASTERN NORTH CAROLINA
NATIONAL WEATHER SERVICE NEWPORT/MOREHEAD CITY NC
100 AM EDT WED MAY 06 2015

NOTE: "FAIR" INDICATES FEW OR NO CLOUDS BELOW 12,000 FEET
WITH NO SIGNIFICANT WEATHER AND/OR OBSTRUCTIONS TO VISIBILITY

NCZ015>017-031-032-045>047-102-103-060600-
NORTH COAST

CITY           SKY/WX    TMP DP  RH WIND       PRES   REMARKS
EDENTON        CLEAR     57  54  89 CALM      30.29F
ELIZABETH CITY CLEAR     61  54  77 S3        30.30F
KITTY HAWK     PTCLDY    64  59  83 CALM      30.29F
MANTEO         PTCLDY    59  57  94 CALM      30.31S

$$

NCZ045>047-081-094-103-104-060600-
CENTRAL COAST

CITY           SKY/WX    TMP DP  RH WIND       PRES   REMARKS
FRISCO         MOCLDY    64  58  80 S3        30.31S
SWANQUARTER      N/A     63 N/A N/A SE1       30.27S

$$

NCZ095-097-098-100-101-060600-
SOUTHERN COAST

CITY           SKY/WX    TMP DP  RH WIND       PRES   REMARKS
BEAUFORT       MOCLDY    60  57  89 NE5       30.29F
CEDAR ISLAND     N/A     59 N/A N/A CALM      30.33S
JACKSONVILLE   MOCLDY    57  55  93 CALM      30.28F
PINEY ISLAND   PTCLDY   N/A N/A N/A CALM      30.30S
WILMINGTON     MOCLDY    58  55  90 CALM      30.28S


$$

NCZ011>013-027>030-043-044-078>080-089-090>093-098-060600-
COASTAL PLAIN

CITY           SKY/WX    TMP DP  RH WIND       PRES   REMARKS
AHOSKIE        CLEAR     55  52  90 CALM      30.30S
CLINTON        PTCLDY    59  56  88 CALM      30.29S
ELIZABETHTOWN  MOCLDY    58  55  87 CALM      30.28S
GOLDSBORO      PTCLDY    60  54  78 CALM      30.26F
GREENVILLE     PTCLDY    61  52  72 CALM      30.29S
HAVELOCK       MOCLDY    56  51  84 CALM      30.30F
KENANSVILLE    PTCLDY    54  51  92 CALM      30.30S
KINSTON        PTCLDY    56  53  92 CALM      30.29F
NEW BERN       PTCLDY    54  50  86 CALM      30.30F
RICHLANDS      PTCLDY    52  46  82 CALM      30.29F
ROCKY MOUNT    CLEAR     57  53  86 CALM      30.29S
WASHINGTON     CLEAR     58  53  83 CALM      30.29F
WHITEVILLE     MOCLDY    57  55  91 CALM      30.27S

$$

AMZ130-135-150-152-154-156-158-170-250-252-270-ANZ085-086-088-633-658-670-060600-
MARINE OBSERVATIONS

STATION/POSITION TIME  TEMP    WIND        PRES    WAVE   SWELL
                       AIR SEA DIR/SP/G            HT/PER HT/PER
                 (UTC) (F)     (DEG/KT/KT) (MB)    (FT/S) (FT/S)
CHESAPEAKE LIGHT 0500   65     210/ 20/ 20 1025.2
64 E VA BEACH    0450   61 57  210/ 10/ 10 1025.6    2/ 9   2/ 9
DUCK             0500   66 51  190/  7/  8 1024.9
2 E DUCK         0411      54                N/A     1/11
OREGON INLET     0500   67 72  180/  5/  7 1026.1
13E OREGON INLT  0500      59                N/A     2/11   2/11
HATTERAS CG      0412          160/  4/  6   N/A
DIAMOND BUOY     0450   70 75  160/  6/ 10 1026.3    3/ 9   3/ 9
CAPE LOOKOUT     0500   68      80/  4/  4 1025.4
BEAUFORT LAB     0412           90/  2/  2   N/A
27 SE WRIGHTSVLE 0500   68 71  120/  4/  6   N/A
5 SE WRIGHTSVLE  0408   69 69   40/  2/  4 1025.2
225 S CAPE HAT   0450   70 71  110/ 17/ 21 1023.8    6/ 7   3/11
41 SE CHARLESTON 0450   73 73   60/ 14/ 16 1022.6    5/ 7   3/ 7

$$



USA.gov is the U.S. government's official web portal to all federal, state and local government web resources and services.